Meteopurmerend
purmerend
Purmerend - Baaienwijk



My webcam  My webcam


Onweer radar Meer informatie blitzortung!


Regen radar Meer informatie rain snow radar


Bezoek onze andere website:

CandyAppleRed WebdesignWebdesign Purmerend Candy Apple Red

MeteopurmerendBlog

Template documentation
and downloads



Het weer levert geen direct gevaar op.    Er zijn geen waarschuwingen afgegeven.

15 daagse weersverwachting Nice (FR)

  • Overzicht
  • Per uur
  • 15 dagen
  • Extra
  • Vergelijk
  • Kaarten
  • Dagkaart
  • Meer »
  • Info
  • Statistieken
  • Directe link
    Temp 6h Neerslag Wind  
 07:26     17:05    Daglengte: 9:39 Vandaag
07:00
53.8 mm
2
13:00
13°
 
2
19:00
11°
 
3
 07:28     17:04    Daglengte: 9:36 Morgen
01:00
10°
73.0 mm
3
07:00
10°
30.9 mm
3
13:00
13°
30.9 mm
3
19:00
12°
 
3
 07:29     17:03    Daglengte: 9:34 Zondag 17 Nov
01:00
11°
 
3
07:00
 
3
13:00
13°
 
3
19:00
10°
 
2
 07:30     17:03    Daglengte: 9:33 Maandag 18 Nov
01:00
 
4
Locatie info
Region:
Latitude: 43.7031°N
Longitude: 7.2661°E
18 masl
Temp/Neerslag /Baro Onweer/Dauwpunt
    Temp Baro 1h Neerslag Dauwpunt Wind UV Bewolking  
 07:26     17:05    Daglengte: 9:39 Vandaag
05:00
10°
997.9 hPa 53.8 mm
56%
6.8°
2
Windvlaag: 0.8 m/s
78%
06:00
10°
Voelt als: 9.1°
998.6 hPa
24%
6.5°
2
Windvlaag: 1.8 m/s
75%
07:00
Voelt als: 8.8°
999.1 hPa
19%
5.9°
2
Windvlaag: 1.3 m/s
65%
08:00
Voelt als: 8.8°
999.7 hPa
14%
5.2°
1
Windvlaag: 0.3 m/s
47%
09:00
10°
Voelt als: 9.5°
1000.3 hPa
14%
5.4°
2
Windvlaag: 0.3 m/s
55%
10:00
11°
1000.4 hPa
14%
5.9°
1
Windvlaag: -0.1 m/s
70%
11:00
12°
1000.5 hPa
14%
5.0°
1
Windvlaag: 1 m/s
44%
12:00
12°
1000.4 hPa
14%
4.4°
2
Windvlaag: 1.3 m/s
74%
13:00
13°
1000.2 hPa
14%
5.2°
2
Windvlaag: 1.1 m/s
43%
14:00
13°
1000.2 hPa
14%
4.8°
2
Windvlaag: 1.1 m/s
67%
15:00
13°
1000.5 hPa
16%
4.4°
2
Windvlaag: 1.1 m/s
78%
16:00
12°
1000.8 hPa
14%
4.6°
2
Windvlaag: 1.3 m/s
80%
17:00
12°
1001.1 hPa
14%
4.9°
2
Windvlaag: 0.9 m/s
84%
18:00
12°
1001.4 hPa
14%
5.2°
2
Windvlaag: 0.5 m/s
89%
19:00
11°
1001.7 hPa
14%
5.4°
3
Windvlaag: 1 m/s
89%
20:00
11°
1002.0 hPa
82%
5.5°
3
Windvlaag: 0.5 m/s
89%
21:00
11°
1002.4 hPa 14.7 mm
82%
6.2°
4
Windvlaag: -0.4 m/s
91%
22:00
11°
1003.0 hPa 15.5 mm
82%
7.1°
3
Windvlaag: -0.8 m/s
89%
23:00
11°
1003.4 hPa 16.0 mm
82%
7.3°
4
Windvlaag: -0.9 m/s
81%
 07:28     17:04    Daglengte: 9:36 Morgen
00:00
10°
1003.7 hPa 11.3 mm
82%
6.1°
3
Windvlaag: -1 m/s
85%
01:00
10°
1004.0 hPa 15.5 mm
44%
5.4°
3
Windvlaag: -1.8 m/s
56%
02:00
10°
Voelt als: 8.5°
1004.0 hPa 15.1 mm
30%
5.0°
3
Windvlaag: -2 m/s
35%
03:00
10°
Voelt als: 8.5°
1004.3 hPa
28%
4.8°
3
Windvlaag: -1.8 m/s
55%
04:00
10°
Voelt als: 8.5°
1004.3 hPa
25%
4.8°
3
Windvlaag: -1.4 m/s
46%
05:00
10°
Voelt als: 8.3°
1004.8 hPa
27%
4.6°
3
Windvlaag: -1.3 m/s
47%
06:00
10°
Voelt als: 8.4°
1005.6 hPa
68%
4.4°
3
Windvlaag: -2 m/s
46%
07:00
10°
Voelt als: 8.4°
1006.3 hPa 15.8 mm
66%
5.0°
3
Windvlaag: -2.1 m/s
46%
08:00
10°
Voelt als: 8.5°
1007.2 hPa
69%
5.2°
3
Windvlaag: -2.2 m/s
64%
09:00
11°
1007.9 hPa
31%
6.3°
2
Windvlaag: -2.2 m/s
47%
10:00
12°
1008.4 hPa
72%
6.3°
3
Windvlaag: -0.3 m/s
46%
11:00
13°
1008.7 hPa 15.4 mm
73%
6.6°
3
Windvlaag: 0.6 m/s
30%
12:00
13°
1008.6 hPa 15.5 mm
77%
7.8°
3
Windvlaag: -0.5 m/s
52%
13:00
13°
1007.9 hPa
76%
8.4°
3
Windvlaag: 0.8 m/s
54%
14:00
13°
1007.5 hPa
78%
8.6°
3
Windvlaag: 0.7 m/s
68%
15:00
13°
1007.1 hPa
79%
7.7°
3
Windvlaag: 0.8 m/s
69%
16:00
13°
1006.8 hPa
37%
7.0°
3
Windvlaag: 0.3 m/s
76%
17:00
13°
1006.4 hPa
19%
6.6°
2
Windvlaag: -0.1 m/s
81%
18:00
12°
1006.1 hPa
19%
5.6°
2
Windvlaag: -1.1 m/s
79%
19:00
12°
1005.7 hPa
17%
5.2°
3
Windvlaag: -1.2 m/s
83%
20:00
12°
1005.0 hPa
14%
5.4°
3
Windvlaag: -1.2 m/s
84%
21:00
11°
1004.9 hPa
14%
5.5°
2
Windvlaag: -1.2 m/s
87%
22:00
11°
1004.5 hPa
21%
5.2°
2
Windvlaag: -1.3 m/s
98%
23:00
11°
1003.9 hPa
21%
4.5°
2
Windvlaag: -0.7 m/s
98%
 07:29     17:03    Daglengte: 9:34 Zondag 17 Nov
00:00
11°
1003.1 hPa
21%
3.9°
3
Windvlaag: 0 m/s
74%
01:00
11°
1002.1 hPa
21%
3.5°
3
Windvlaag: -1.1 m/s
77%
02:00
10°
1001.5 hPa
21%
2.7°
3
Windvlaag: -0.9 m/s
77%
03:00
10°
1000.6 hPa
21%
2.0°
3
Windvlaag: -1.5 m/s
94%
04:00
10°
Voelt als: 8.1°
1000.0 hPa
21%
1.3°
4
Windvlaag: -1.4 m/s
98%
05:00
10°
Voelt als: 8.4°
999.3 hPa
25%
0.2°
3
Windvlaag: -1 m/s
98%
06:00
Voelt als: 7.5°
998.8 hPa
21%
-0.8°
4
Windvlaag: -0.8 m/s
90%
07:00
Voelt als: 7.7°
999.0 hPa
21%
-0.8°
3
Windvlaag: 0.1 m/s
73%
08:00
Voelt als: 6.6°
1001.4 hPa
21%
-2.2°
3
Windvlaag: 0.8 m/s
70%
09:00
Voelt als: 7.7°
1001.7 hPa
21%
-1.1°
3
Windvlaag: 0.7 m/s
53%
10:00
11°
1001.8 hPa
23%
-0.0°
3
Windvlaag: 1.1 m/s
16%
11:00
12°
1001.8 hPa
23%
0.2°
2
Windvlaag: 1.4 m/s
11%
12:00
13°
1001.8 hPa
24%
2.0°
2
Windvlaag: 1.4 m/s
11%
13:00
13°
1001.5 hPa
67%
3.3°
3
Windvlaag: 1.1 m/s
23%
14:00
13°
1001.5 hPa
67%
3.1°
4
Windvlaag: 0.9 m/s
25%
15:00
13°
1001.7 hPa
22%
2.3°
4
Windvlaag: 0.9 m/s
31%
16:00
13°
1002.1 hPa
22%
3.0°
3
Windvlaag: 1.2 m/s
19%
17:00
11°
1002.6 hPa
21%
2.2°
3
Windvlaag: 1.4 m/s
0%
18:00
10°
1003.2 hPa
22%
1.5°
2
Windvlaag: 1.6 m/s
0%
19:00
10°
Voelt als: 9.0°
1003.8 hPa
24%
0.9°
2
Windvlaag: 1.4 m/s
12%
20:00
Voelt als: 8.3°
1004.3 hPa
21%
0.3°
2
Windvlaag: 8.5 m/s
9%
21:00
Voelt als: 7.9°
1004.7 hPa
22%
-0.3°
2
Windvlaag: 9.1 m/s
9%
22:00
Voelt als: 7.1°
1005.2 hPa
29%
-0.9°
3
Windvlaag: 6.8 m/s
0%
23:00
Voelt als: 6.5°
1005.6 hPa
30%
-1.3°
3
Windvlaag: 6.4 m/s
0%
 07:30     17:03    Daglengte: 9:33 Maandag 18 Nov
00:00
Voelt als: 5.9°
1005.9 hPa
34%
-1.8°
3
Windvlaag: 5.7 m/s
0%
01:00
Voelt als: 5.3°
1006.3 hPa
34%
-2.3°
4
Windvlaag: 0.7 m/s
0%
02:00
Voelt als: 3.8°
1008.1 hPa 76.5 mm
100%
-3.6°
4
Windvlaag: 3.8 m/s
13%
03:00
Voelt als: 3.9°
1008.4 hPa 76.5 mm
100%
-3.8°
4
Windvlaag: 3.3 m/s
27%
04:00
Voelt als: 3.9°
1008.7 hPa 76.5 mm
100%
-4.0°
4
Windvlaag: 3 m/s
40%
Temp/Neerslag /Baro Onweer/Dauwpunt
    Temp Baro Neerslag Dauwpunt Wind Bewolking  
 07:26     17:05    Daglengte: 9:39 Vandaag
07:00
Voelt als: 8.8°
999.1 hPa 53.8 mm 5.9°
2
65%
10:00
11°
1000.4 hPa   5.9°
1
70%
13:00
13°
1000.2 hPa   5.2°
2
43%
16:00
12°
1000.8 hPa   4.6°
2
80%
19:00
11°
1001.7 hPa   5.4°
3
89%
22:00
11°
1003.0 hPa 30.2 mm 7.1°
3
89%
 07:28     17:04    Daglengte: 9:36 Morgen
01:00
10°
1004.0 hPa 42.8 mm 5.4°
3
56%
04:00
10°
Voelt als: 8.5°
1004.3 hPa 15.1 mm 4.8°
3
46%
07:00
10°
Voelt als: 8.4°
1006.3 hPa 15.8 mm 5.0°
3
46%
10:00
12°
1008.4 hPa   6.3°
3
46%
13:00
13°
1007.9 hPa 30.9 mm 8.4°
3
54%
16:00
13°
1006.8 hPa   7.0°
3
76%
19:00
12°
1005.7 hPa   5.2°
3
83%
22:00
11°
1004.5 hPa   5.2°
2
98%
 07:29     17:03    Daglengte: 9:34 Zondag 17 Nov
01:00
11°
1002.1 hPa   3.5°
3
77%
04:00
10°
Voelt als: 8.1°
1000.0 hPa   1.3°
4
98%
07:00
Voelt als: 7.7°
999.0 hPa   -0.8°
3
73%
10:00
11°
1001.8 hPa   -0.0°
3
16%
13:00
13°
1001.5 hPa   3.3°
3
23%
16:00
13°
1002.1 hPa   3.0°
3
19%
19:00
10°
Voelt als: 9.0°
1003.8 hPa   0.9°
2
12%
22:00
Voelt als: 7.1°
1005.2 hPa   -0.9°
3
0%
 07:30     17:03    Daglengte: 9:33 Maandag 18 Nov
01:00
Voelt als: 5.3°
1006.3 hPa   -2.3°
4
0%
04:00
Voelt als: 3.9°
1008.7 hPa 229.5 mm -4.0°
4
40%
07:00
Voelt als: 4.5°
1009.7 hPa 229.5 mm -4.1°
4
81%
10:00
10°
Voelt als: 8.9°
1011.7 hPa 64.4 mm 1.2°
2
84%
13:00
12°
1012.2 hPa 64.4 mm 3.8°
2
83%
16:00
10°
1011.8 hPa 64.4 mm 4.1°
3
87%
19:00
Voelt als: 6.4°
1011.6 hPa 64.6 mm 4.1°
5
92%
22:00
Voelt als: 6.5°
1011.5 hPa 64.7 mm 3.8°
4
91%
 07:31     17:02    Daglengte: 9:31 Dinsdag 19 Nov
01:00
Voelt als: 6.7°
1011.3 hPa 64.7 mm 3.6°
4
91%
04:00
Voelt als: 6.5°
1011.5 hPa 64.7 mm 2.9°
3
53%
07:00
Voelt als: 6.4°
1011.8 hPa 64.7 mm 2.3°
2
15%
10:00
10°
1012.4 hPa 64.7 mm 2.4°
1
8%
13:00
13°
1012.9 hPa 64.7 mm 2.1°
1
0%
16:00
11°
1014.0 hPa 64.7 mm 3.1°
1
0%
19:00
Voelt als: 8.6°
1015.1 hPa 64.7 mm 3.5°
2
0%
22:00
Voelt als: 6.7°
1016.5 hPa 64.7 mm -0.2°
2
43%
 07:33     17:01    Daglengte: 9:28 Woensdag 20 Nov
01:00
Voelt als: 5.0°
1017.8 hPa 64.7 mm -4.4°
3
86%
04:00
Voelt als: 4.7°
1018.6 hPa 64.7 mm -4.0°
3
88%
07:00
Voelt als: 4.6°
1019.5 hPa 64.7 mm -3.5°
4
90%
10:00
10°
Voelt als: 8.3°
1019.6 hPa 65.4 mm 0.2°
3
91%
13:00
12°
1019.6 hPa 66.9 mm 4.2°
1
92%
16:00
12°
1019.4 hPa 68.2 mm 4.0°
1
92%
19:00
12°
1019.2 hPa 68.3 mm 3.8°
1
92%
22:00
11°
1018.7 hPa 69.2 mm 3.1°
2
88%
 07:34     17:00    Daglengte: 9:26 Donderdag 21 Nov
01:00
10°
Voelt als: 8.4°
1018.2 hPa 70.5 mm 2.2°
3
85%
04:00
10°
1017.5 hPa 75.0 mm 1.8°
4
82%
07:00
11°
1016.9 hPa 83.5 mm 1.3°
4
80%
10:00
13°
1017.2 hPa 97.3 mm 3.9°
3
65%
13:00
15°
1017.2 hPa 101.0 mm 6.4°
2
50%
16:00
14°
1017.0 hPa 113.5 mm 6.3°
2
42%
19:00
13°
1017.0 hPa 126.9 mm 6.0°
2
34%
22:00
11°
1016.7 hPa 131.4 mm 4.4°
3
35%
 07:35     17:00    Daglengte: 9:25 Vrijdag 22 Nov
01:00
10°
Voelt als: 7.9°
1016.4 hPa 132.2 mm 3.0°
3
35%
04:00
10°
Voelt als: 8.1°
1016.5 hPa   3.4°
4
62%
07:00
10°
1016.7 hPa 271.8 mm 3.8°
4
88%
13:00
17°
1016.1 hPa 285.8 mm 8.2°
2
84%
19:00
14°
1015.5 hPa 288.3 mm 6.3°
3
90%
 07:36     16:59    Daglengte: 9:23 Zaterdag 23 Nov
01:00
14°
1015.2 hPa 290.0 mm 4.8°
3
91%
07:00
14°
1014.6 hPa 291.8 mm 6.1°
2
71%
13:00
17°
1014.0 hPa 309.4 mm 10.3°
6
71%
19:00
16°
1014.5 hPa 357.5 mm 9.8°
5
76%
 07:38     16:58    Daglengte: 9:20 Zondag 24 Nov
01:00
16°
1014.1 hPa 374.1 mm 9.0°
4
90%
07:00
14°
1011.0 hPa 388.5 mm 6.5°
4
15%
13:00
18°
1009.2 hPa 409.6 mm 7.8°
3
61%
19:00
13°
1000.4 hPa 428.2 mm 9.2°
5
1%
 07:39     16:58    Daglengte: 9:19 Maandag 25 Nov
01:00
11°
1011.7 hPa 0.8 mm 8.8°
2
54%
07:00
11°
1011.4 hPa 1.2 mm 7.8°
2
56%
13:00
14°
1011.8 hPa 2.1 mm 10.4°
0
63%
19:00
12°
1012.0 hPa 2.6 mm 9.4°
1
63%
 07:40     16:57    Daglengte: 9:17 Dinsdag 26 Nov
01:00
11°
1012.7 hPa 2.1 mm 8.5°
1
53%
07:00
11°
1012.5 hPa 1.3 mm 7.8°
1
48%
13:00
14°
1012.7 hPa 0.5 mm 9.7°
1
49%
19:00
11°
1012.7 hPa 1.0 mm 8.6°
1
54%
 07:41     16:56    Daglengte: 9:15 Woensdag 27 Nov
01:00
11°
1012.8 hPa 1.1 mm 7.8°
1
49%
07:00
11°
1011.6 hPa 2.7 mm 7.5°
1
52%
13:00
14°
1011.0 hPa 2.9 mm 9.7°
0
61%
19:00
11°
1011.2 hPa 2.5 mm 8.3°
2
56%
 07:42     16:56    Daglengte: 9:14 Donderdag 28 Nov
01:00
10°
1012.0 hPa 0.7 mm 6.9°
2
47%
07:00
10°
Voelt als: 8.4°
1012.0 hPa 0.5 mm 6.0°
2
38%
13:00
13°
1012.3 hPa 0.8 mm 8.2°
1
37%
19:00
10°
1013.0 hPa 1.5 mm 6.8°
2
43%
 07:44     16:56    Daglengte: 9:12 Vrijdag 29 Nov
01:00
Voelt als: 8.3°
1014.1 hPa 0.9 mm 5.8°
2
41%
07:00
Voelt als: 8.1°
1014.2 hPa 0.7 mm 5.3°
2
43%
13:00
13°
1014.8 hPa 0.7 mm 7.7°
1
48%
19:00
10°
1016.1 hPa 0.3 mm 6.5°
1
47%
 07:45     16:55    Daglengte: 9:10 Zaterdag 30 Nov
01:00
Voelt als: 7.9°
1017.9 hPa 0.2 mm 5.3°
2
38%
  CAPE Lifted Index Hail Supercell Tornado SRH 3km CL BTM PRES CL TOP PRES Swiss DWD icon SMHI TS
 07:26     17:05    Daglengte: 9:39 Vandaag
05:00 0 J/kg 3.1 K 0 % 0 % 0 % 0 m²/s² 0 0 10.18 3
06:00 0 J/kg 2.9 K 0 % 0 % 0 % 0 m²/s² 0 0 9.71 3
07:00 0 J/kg 3.7 K 0 % 0 % 0 % 0 m²/s² 0 0 11.02 3
08:00 0 J/kg 3.9 K 0 % 0 % 0 % 0 m²/s² 0 0 10.47 3
09:00 0 J/kg 4.2 K 0 % 0 % 0 % 0 m²/s² 0 0 9.54 3
10:00 0 J/kg 4.2 K 0 % 0 % 0 % 0 m²/s² 0 0 8.43 3
11:00 0 J/kg 4.0 K 0 % 0 % 0 % 0 m²/s² 0 0 7.33 3
12:00 0 J/kg 3.8 K 0 % 0 % 0 % 0 m²/s² 0 0 5.99 3
13:00 0 J/kg 3.8 K 0 % 0 % 0 % 0 m²/s² 0 0 5.69 1
14:00 0 J/kg 3.8 K 0 % 0 % 0 % 0 m²/s² 0 0 7.82 3
15:00 0 J/kg 4.2 K 0 % 0 % 0 % 0 m²/s² 0 0 7.8 3
16:00 0 J/kg 3.1 K 0 % 0 % 0 % 0 m²/s² 0 0 4.87 3
17:00 17 J/kg 1.1 K 0 % 0 % 0 % 0 m²/s² 0 0 3.38 3
18:00 92 J/kg 0.2 K 0 % 0 % 0 % 0 m²/s² 0 0 1.49 3
19:00 567 J/kg -2.3 K 0 % 0 % 0 % 0 m²/s² 0 0 -1.07 3
20:00 648 J/kg -2.3 K 0 % 0 % 0 % 0 m²/s² 0 0 -1.82 3
21:00 271 J/kg -0.8 K 0 % 0 % 0 % 0 m²/s² 0 0 -0.47 3
22:00 55 J/kg 0.0 K 0 % 0 % 0 % 0 m²/s² 0 0 0.21 80
23:00 16 J/kg -0.3 K 0 % 0 % 0 % 0 m²/s² 0 0 2.88 80
 07:28     17:04    Daglengte: 9:36 Morgen
00:00 13 J/kg -0.1 K 0 % 0 % 0 % 0 m²/s² 0 0 3.86 80
01:00 3 J/kg 1.3 K 0 % 0 % 0 % 0 m²/s² 0 0 6.16 3
02:00 0 J/kg 2.1 K 0 % 0 % 0 % 0 m²/s² 0 0 5.16 2
03:00 0 J/kg 3.6 K 0 % 0 % 0 % 0 m²/s² 0 0 3.87 2
04:00 0 J/kg 0.5 K 0 % 0 % 0 % 0 m²/s² 0 0 5.78 2
05:00 0 J/kg -0.8 K 0 % 0 % 0 % 0 m²/s² 0 0 4.63 2
06:00 0 J/kg -2.1 K 0 % 0 % 0 % 0 m²/s² 0 0 1.89 2
07:00 0 J/kg -1.3 K 0 % 0 % 0 % 0 m²/s² 0 0 0.89 2
08:00 0 J/kg -1.0 K 0 % 0 % 0 % 0 m²/s² 0 0 4.28 3
09:00 0 J/kg -0.2 K 0 % 0 % 0 % 0 m²/s² 0 0 6.55 3
10:00 0 J/kg 1.0 K 0 % 0 % 0 % 0 m²/s² 0 0 7.12 2
11:00 14 J/kg 0.9 K 0 % 0 % 0 % 0 m²/s² 0 0 7.02 2
12:00 24 J/kg 1.2 K 0 % 0 % 0 % 0 m²/s² 0 0 6.24 80
13:00 4 J/kg 1.8 K 0 % 0 % 0 % 0 m²/s² 0 0 6.36 3
14:00 5 J/kg 2.0 K 0 % 0 % 0 % 0 m²/s² 0 0 6.92 3
15:00 8 J/kg 2.0 K 0 % 0 % 0 % 0 m²/s² 0 0 7.22 3
16:00 7 J/kg 2.6 K 0 % 0 % 0 % 0 m²/s² 0 0 7.97 3
17:00 4 J/kg 2.8 K 0 % 0 % 0 % 0 m²/s² 0 0 8.17 3
18:00 0 J/kg 3.7 K 0 % 0 % 0 % 0 m²/s² 0 0 8.83 3
19:00 0 J/kg 4.3 K 0 % 0 % 0 % 0 m²/s² 0 0 9.16 3
20:00 0 J/kg 4.0 K 0 % 0 % 0 % 0 m²/s² 0 0 8.62 3
21:00 0 J/kg 3.7 K 0 % 0 % 0 % 0 m²/s² 0 0 8.32 3
22:00 0 J/kg 3.1 K 0 % 0 % 0 % 0 m²/s² 0 0 7.39 3
23:00 0 J/kg 3.6 K 0 % 0 % 0 % 0 m²/s² 0 0 7.68 3
 07:29     17:03    Daglengte: 9:34 Zondag 17 Nov
00:00 0 J/kg 4.6 K 0 % 0 % 0 % 0 m²/s² 0 0 8.98 3
01:00 0 J/kg 4.5 K 0 % 0 % 0 % 0 m²/s² 0 0 9.12 3
02:00 0 J/kg 5.7 K 0 % 0 % 0 % 0 m²/s² 0 0 10.05 3
03:00 0 J/kg 6.0 K 0 % 0 % 0 % 0 m²/s² 0 0 12.06 3
04:00 0 J/kg 5.7 K 0 % 0 % 0 % 0 m²/s² 0 0 11.94 3
05:00 0 J/kg 4.8 K 0 % 0 % 0 % 0 m²/s² 0 0 9.87 3
06:00 0 J/kg 5.4 K 0 % 0 % 0 % 0 m²/s² 0 0 9.99 3
07:00 0 J/kg 6.3 K 0 % 0 % 0 % 0 m²/s² 0 0 10.23 3
08:00 0 J/kg 6.5 K 0 % 0 % 0 % 0 m²/s² 0 0 10.13 3
09:00 0 J/kg 6.1 K 0 % 0 % 0 % 0 m²/s² 0 0 10.39 3
10:00 0 J/kg 4.9 K 0 % 0 % 0 % 0 m²/s² 0 0 8.86 3
11:00 0 J/kg 4.2 K 0 % 0 % 0 % 0 m²/s² 0 0 7.41 3
12:00 0 J/kg 3.1 K 0 % 0 % 0 % 0 m²/s² 0 0 6.31 3
13:00 1 J/kg 2.6 K 0 % 0 % 0 % 0 m²/s² 0 0 5.24 3
14:00 0 J/kg 1.6 K 0 % 0 % 0 % 0 m²/s² 0 0 4.06 2
15:00 0 J/kg 1.8 K 0 % 0 % 0 % 0 m²/s² 0 0 3.75 3
16:00 0 J/kg 2.2 K 0 % 0 % 0 % 0 m²/s² 0 0 3.97 3
17:00 0 J/kg 2.0 K 0 % 0 % 0 % 0 m²/s² 0 0 3.5 2
18:00 0 J/kg 1.6 K 0 % 0 % 0 % 0 m²/s² 0 0 2.8 2
19:00 0 J/kg 2.3 K 0 % 0 % 0 % 0 m²/s² 0 0 3.74 3
20:00 0 J/kg 3.1 K 0 % 0 % 0 % 0 m²/s² 0 0 5.11 3
21:00 0 J/kg 3.6 K 0 % 0 % 0 % 0 m²/s² 0 0 5.61 3
22:00 0 J/kg 4.8 K 0 % 0 % 0 % 0 m²/s² 0 0 6.9 2
23:00 0 J/kg 5.5 K 0 % 0 % 0 % 0 m²/s² 0 0 8.05 2
 07:30     17:03    Daglengte: 9:33 Maandag 18 Nov
00:00 0 J/kg 5.5 K 0 % 0 % 0 % 0 m²/s² 0 0 8.62 1
01:00 0 J/kg 5.6 K 0 % 0 % 0 % 0 m²/s² 0 0 9.05 0
02:00 0 J/kg 5.9 K 0 % 0 % 0 % 0 m²/s² 0 0 9.17
03:00 0 J/kg 6.3 K 0 % 0 % 0 % 0 m²/s² 0 0 10.32
04:00 0 J/kg 6.2 K 0 % 0 % 0 % 0 m²/s² 0 0 10.67
Temp Baro Wind Neerslag
  EWN Forecast EWN WRFDA DWD ICON FMI HIRLAM MET Norway GFS
 07:26     17:05    Daglengte: 9:39 Vandaag
07:00 9.3° 999.1 hPa 1.6 m/s 53.8 mm 8.7° 996.5 hPa 2.3 m/s 204.7 mm 9.6° 999.4 hPa 1.4 m/s 62.9 mm 11.3° 999.3 hPa 1.0 m/s 0.0 mm 8.8° 999.0 hPa 1.7 m/s 0.0 mm 9.6° 1000.5 hPa 2.7 m/s
10:00 11.1° 1000.4 hPa 0.9 m/s 0.0 mm 11.0° 998.6 hPa 1.4 m/s 204.8 mm 10.7° 1000.5 hPa 0.6 m/s 0.0 mm 12.4° 1000.5 hPa 0.8 m/s 0.0 mm 11.1° 1000.3 hPa 1.8 m/s 0.0 mm 11.1° 1002.2 hPa 2.0 m/s
13:00 12.5° 1000.2 hPa 1.9 m/s 0.0 mm 12.4° 998.3 hPa 1.9 m/s 204.8 mm 11.8° 1000.7 hPa 1.5 m/s 0.0 mm 12.8° 1000.0 hPa 3.2 m/s 0.0 mm 12.9° 1000.2 hPa 1.4 m/s 0.0 mm 12.7° 1002.0 hPa 2.6 m/s
16:00 12.4° 1000.8 hPa 1.6 m/s 0.0 mm 12.5° 997.8 hPa 3.4 m/s 204.8 mm 11.7° 1000.9 hPa 0.9 m/s 0.0 mm 13.1° 1000.1 hPa 2.0 m/s 0.0 mm 12.4° 1001.0 hPa 1.3 m/s 0.0 mm 11.7° 1001.9 hPa 1.6 m/s
19:00 11.4° 1001.7 hPa 2.8 m/s 0.0 mm 12.3° 997.5 hPa 7.1 m/s 205.6 mm 10.8° 1002.4 hPa 1.9 m/s 0.0 mm 13.7° 999.9 hPa 7.9 m/s 0.0 mm 11.0° 1002.0 hPa 1.1 m/s 0.0 mm 10.6° 1002.3 hPa 2.9 m/s
22:00 10.8° 1003.0 hPa 3.4 m/s 30.2 mm 10.4° 999.3 hPa 3.4 m/s 214.0 mm 10.3° 1003.3 hPa 3.0 m/s 1.3 mm 13.6° 1000.1 hPa 8.9 m/s 0.0 mm 10.7° 1003.5 hPa 2.8 m/s 2.2 mm 8.8° 1003.6 hPa 5.4 m/s
 07:28     17:04    Daglengte: 9:36 Morgen
01:00 10.0° 1004.0 hPa 3.2 m/s 42.8 mm 9.2° 1001.6 hPa 1.6 m/s 221.9 mm 9.7° 1004.3 hPa 2.5 m/s 2.1 mm 12.8° 1002.5 hPa 5.9 m/s 0.0 mm 9.4° 1004.3 hPa 2.9 m/s 4.6 mm 10.7° 1005.2 hPa 2.9 m/s
04:00 9.8° 1004.3 hPa 2.5 m/s 15.1 mm 8.5° 1003.3 hPa 3.6 m/s 224.6 mm 9.2° 1005.8 hPa 1.9 m/s 0.0 mm 11.2° 1003.9 hPa 3.4 m/s 0.0 mm 9.7° 1004.1 hPa 1.8 m/s 0.5 mm 10.1° 1006.8 hPa 2.5 m/s
07:00 9.7° 1006.3 hPa 2.6 m/s 15.8 mm 9.9° 1003.7 hPa 3.7 m/s 229.5 mm 8.9° 1007.7 hPa 1.9 m/s 0.0 mm 10.7° 1006.4 hPa 3.0 m/s 0.0 mm 9.3° 1005.8 hPa 1.4 m/s 0.0 mm 9.9° 1009.0 hPa 1.7 m/s
10:00 12.0° 1008.4 hPa 2.5 m/s 0.0 mm 12.2° 1005.4 hPa 2.6 m/s 229.5 mm 11.5° 1009.9 hPa 2.2 m/s 0.1 mm 12.4° 1007.6 hPa 3.4 m/s 0.0 mm 11.7° 1008.4 hPa 1.4 m/s 1.5 mm 11.9° 1010.7 hPa 2.0 m/s
13:00 13.4° 1007.9 hPa 2.6 m/s 30.9 mm 14.2° 1005.2 hPa 2.6 m/s 229.5 mm 13.0° 1008.7 hPa 0.9 m/s 0.4 mm 14.2° 1006.2 hPa 4.8 m/s 0.0 mm 12.3° 1008.3 hPa 2.0 m/s 0.3 mm 13.7° 1010.0 hPa 1.3 m/s
16:00 13.2° 1006.8 hPa 3.2 m/s 0.0 mm 14.2° 1003.4 hPa 3.6 m/s 229.5 mm 12.8° 1007.4 hPa 1.5 m/s 0.0 mm 14.6° 1004.6 hPa 7.0 m/s 0.0 mm 12.5° 1007.8 hPa 2.3 m/s 0.0 mm 13.3° 1009.0 hPa 2.6 m/s
19:00 11.7° 1005.7 hPa 2.9 m/s 0.0 mm 12.3° 1002.4 hPa 4.0 m/s 229.5 mm 11.4° 1006.7 hPa 1.7 m/s 0.0 mm 13.9° 1004.5 hPa 4.6 m/s 0.0 mm 10.5° 1008.0 hPa 2.4 m/s 0.0 mm 10.7° 1008.8 hPa 4.3 m/s
22:00 11.1° 1004.5 hPa 2.5 m/s 0.0 mm 12.1° 1000.0 hPa 3.4 m/s 229.5 mm 11.4° 1004.6 hPa 1.9 m/s 0.0 mm 9.2° 1007.3 hPa 2.5 m/s 0.0 mm 10.0° 1007.6 hPa 4.8 m/s
 07:29     17:03    Daglengte: 9:34 Zondag 17 Nov
01:00 10.8° 1002.1 hPa 2.7 m/s 0.0 mm 12.7° 996.2 hPa 2.8 m/s 229.5 mm 11.2° 1002.1 hPa 2.1 m/s 0.0 mm 8.0° 1006.6 hPa 3.4 m/s 0.0 mm 9.8° 1004.7 hPa 4.0 m/s
04:00 10.0° 1000.0 hPa 3.8 m/s 0.0 mm 11.5° 993.4 hPa 2.7 m/s 229.5 mm 10.5° 1000.0 hPa 1.8 m/s 0.0 mm 6.8° 1005.1 hPa 4.3 m/s 0.0 mm 10.2° 1001.0 hPa 2.5 m/s
07:00 9.4° 999.0 hPa 3.2 m/s 0.0 mm 10.5° 991.5 hPa 3.5 m/s 229.5 mm 10.2° 998.6 hPa 1.9 m/s 0.0 mm 6.4° 1004.9 hPa 3.8 m/s 0.0 mm 9.9° 999.6 hPa 1.7 m/s
10:00 10.9° 1001.8 hPa 2.6 m/s 0.0 mm 12.2° 993.3 hPa 6.3 m/s 229.5 mm 11.8° 999.3 hPa 2.2 m/s 0.0 mm 9.9° 1005.5 hPa 2.1 m/s 0.0 mm 11.2° 999.6 hPa 1.5 m/s
13:00 13.4° 1001.5 hPa 2.9 m/s 0.0 mm 12.3° 993.7 hPa 7.6 m/s 229.5 mm 14.0° 999.6 hPa 1.7 m/s 0.0 mm 13.4° 1004.7 hPa 2.5 m/s 0.0 mm 12.7° 1000.8 hPa 2.9 m/s
16:00 12.7° 1002.1 hPa 3.0 m/s 0.0 mm 12.1° 993.2 hPa 5.7 m/s 229.5 mm 12.9° 1000.5 hPa 2.1 m/s 0.0 mm 12.8° 1005.2 hPa 2.8 m/s 0.0 mm 11.8° 1001.8 hPa 2.7 m/s
19:00 9.8° 1003.8 hPa 2.0 m/s 0.0 mm 11.2° 995.0 hPa 5.5 m/s 229.5 mm 11.5° 1001.9 hPa 1.7 m/s 0.0 mm 8.4° 1007.2 hPa 1.6 m/s 0.0 mm 10.1° 1003.6 hPa 1.8 m/s
22:00 8.6° 1005.2 hPa 2.7 m/s 0.0 mm 10.1° 998.1 hPa 2.9 m/s 229.5 mm 10.1° 1003.2 hPa 2.0 m/s 0.0 mm 7.2° 1008.1 hPa 2.8 m/s 8.3° 1005.4 hPa 3.2 m/s
 07:30     17:03    Daglengte: 9:33 Maandag 18 Nov
01:00 7.6° 1006.3 hPa 3.7 m/s 0.0 mm 9.5° 999.7 hPa 3.9 m/s 229.5 mm 9.2° 1004.5 hPa 1.9 m/s 0.0 mm 6.0° 1009.0 hPa 4.0 m/s 7.7° 1006.4 hPa 2.6 m/s
04:00 6.5° 1008.7 hPa 3.7 m/s 229.5 mm 8.8° 1001.1 hPa 2.8 m/s 229.5 mm 6.2° 1010.0 hPa 3.8 m/s 7.8° 1007.5 hPa 2.9 m/s
07:00 6.9° 1009.7 hPa 3.6 m/s 229.5 mm 10.6° 1002.5 hPa 3.4 m/s 229.5 mm 6.3° 1010.9 hPa 3.6 m/s 7.9° 1009.0 hPa 3.4 m/s
10:00 9.9° 1011.7 hPa 2.3 m/s 64.4 mm 9.9° 1011.8 hPa 2.3 m/s 10.5° 1010.6 hPa 2.3 m/s 64.4 mm
13:00 11.8° 1012.2 hPa 1.8 m/s 64.4 mm 11.7° 1012.3 hPa 1.6 m/s 12.6° 1010.7 hPa 3.5 m/s 64.4 mm
16:00 10.4° 1011.8 hPa 3.3 m/s 64.4 mm 10.2° 1011.9 hPa 3.3 m/s 12.1° 1010.4 hPa 3.9 m/s 64.4 mm
19:00 9.0° 1011.6 hPa 4.7 m/s 64.6 mm 8.8° 1011.5 hPa 5.0 m/s 10.9° 1012.2 hPa 1.0 m/s 64.6 mm
22:00 8.9° 1011.5 hPa 4.2 m/s 64.7 mm 8.8° 1011.3 hPa 4.3 m/s 9.6° 1013.4 hPa 3.4 m/s 64.7 mm
 07:31     17:02    Daglengte: 9:31 Dinsdag 19 Nov
01:00 8.7° 1011.3 hPa 3.6 m/s 64.7 mm 8.8° 1011.1 hPa 3.6 m/s 8.2° 1013.6 hPa 3.9 m/s 64.7 mm
04:00 8.2° 1011.5 hPa 2.8 m/s 64.7 mm 8.2° 1011.4 hPa 2.8 m/s 8.0° 1013.0 hPa 3.4 m/s 64.7 mm
07:00 7.6° 1011.8 hPa 2.0 m/s 64.7 mm 7.6° 1011.6 hPa 1.9 m/s 7.9° 1013.5 hPa 3.0 m/s 64.7 mm
10:00 10.2° 1012.4 hPa 1.4 m/s 64.7 mm 10.1° 1012.2 hPa 1.4 m/s 10.3° 1014.3 hPa 1.4 m/s 64.7 mm
13:00 12.7° 1012.9 hPa 1.0 m/s 64.7 mm 12.7° 1012.9 hPa 1.0 m/s 12.3° 1013.2 hPa 1.4 m/s 64.7 mm
16:00 11.0° 1014.0 hPa 1.4 m/s 64.7 mm 10.9° 1014.0 hPa 1.2 m/s 12.2° 1013.0 hPa 3.5 m/s 64.7 mm
19:00 9.1° 1015.1 hPa 1.6 m/s 64.7 mm 9.1° 1015.2 hPa 1.4 m/s 9.7° 1014.3 hPa 3.6 m/s 64.7 mm
22:00 8.1° 1016.5 hPa 2.4 m/s 64.7 mm 8.1° 1016.6 hPa 2.3 m/s 8.3° 1015.2 hPa 3.2 m/s 64.7 mm
 07:33     17:01    Daglengte: 9:28 Woensdag 20 Nov
01:00 7.2° 1017.8 hPa 3.2 m/s 64.7 mm 7.1° 1018.0 hPa 3.2 m/s 7.9° 1015.4 hPa 3.5 m/s 64.7 mm
04:00 7.1° 1018.6 hPa 3.5 m/s 64.7 mm 7.0° 1019.0 hPa 3.5 m/s 8.1° 1014.6 hPa 3.7 m/s 64.7 mm
07:00 7.1° 1019.5 hPa 3.6 m/s 64.7 mm 6.9° 1019.9 hPa 3.7 m/s 9.2° 1014.5 hPa 2.6 m/s 64.7 mm
10:00 9.6° 1019.6 hPa 2.5 m/s 65.4 mm 9.6° 1020.0 hPa 2.5 m/s 9.7° 1015.0 hPa 2.4 m/s 65.4 mm
13:00 12.1° 1019.6 hPa 1.4 m/s 66.9 mm 12.3° 1020.1 hPa 1.4 m/s 9.8° 1014.2 hPa 1.6 m/s 66.9 mm
16:00 11.9° 1019.4 hPa 1.5 m/s 68.2 mm 12.0° 1019.9 hPa 1.4 m/s 10.6° 1013.6 hPa 2.6 m/s 68.2 mm
19:00 11.7° 1019.2 hPa 1.3 m/s 68.3 mm 11.7° 1019.7 hPa 1.3 m/s 11.2° 1014.0 hPa 1.8 m/s 68.3 mm
22:00 10.8° 1018.7 hPa 2.2 m/s 69.2 mm 10.8° 1019.1 hPa 2.2 m/s 11.4° 1014.7 hPa 2.2 m/s 69.2 mm
 07:34     17:00    Daglengte: 9:26 Donderdag 21 Nov
01:00 9.9° 1018.2 hPa 3.2 m/s 70.5 mm 9.8° 1018.5 hPa 3.2 m/s 11.5° 1014.7 hPa 2.6 m/s 70.5 mm
04:00 10.2° 1017.5 hPa 3.6 m/s 75.0 mm 10.1° 1017.9 hPa 3.5 m/s 11.2° 1013.8 hPa 3.6 m/s 75.0 mm
07:00 10.5° 1016.9 hPa 3.8 m/s 83.5 mm 10.4° 1017.2 hPa 3.9 m/s 11.7° 1013.8 hPa 2.3 m/s 83.5 mm
10:00 12.7° 1017.2 hPa 2.8 m/s 97.3 mm 12.8° 1017.4 hPa 2.9 m/s 12.2° 1015.0 hPa 2.7 m/s 97.3 mm
13:00 14.9° 1017.2 hPa 1.8 m/s 101.0 mm 15.1° 1017.5 hPa 1.8 m/s 13.0° 1014.4 hPa 1.5 m/s 101.0 mm
16:00 13.8° 1017.0 hPa 2.2 m/s 113.5 mm 13.8° 1017.4 hPa 2.0 m/s 13.3° 1013.2 hPa 3.5 m/s 113.5 mm
19:00 12.6° 1017.0 hPa 2.4 m/s 126.9 mm 12.6° 1017.3 hPa 2.3 m/s 12.9° 1013.2 hPa 3.5 m/s 126.9 mm
22:00 11.2° 1016.7 hPa 3.0 m/s 131.4 mm 11.0° 1017.0 hPa 2.8 m/s 13.8° 1013.1 hPa 5.2 m/s 131.4 mm
 07:35     17:00    Daglengte: 9:25 Vrijdag 22 Nov
01:00 9.7° 1016.4 hPa 3.4 m/s 132.2 mm 9.4° 1016.8 hPa 3.3 m/s 13.1° 1012.5 hPa 4.6 m/s 132.2 mm
04:00 9.9° 1016.5 hPa 3.5 m/s 133.4 mm 9.6° 1017.0 hPa 3.5 m/s 13.4° 1011.7 hPa 4.1 m/s 133.4 mm
07:00 10.1° 1016.7 hPa 3.7 m/s 138.4 mm 9.8° 1017.1 hPa 3.7 m/s 12.9° 1011.7 hPa 4.1 m/s 138.4 mm
13:00 16.6° 1016.1 hPa 2.3 m/s 143.4 mm 16.8° 1016.5 hPa 2.0 m/s 14.2° 1011.4 hPa 5.9 m/s 143.4 mm
19:00 13.9° 1015.5 hPa 2.9 m/s 144.6 mm 13.9° 1016.0 hPa 2.5 m/s 14.3° 1010.4 hPa 7.8 m/s 144.6 mm
 07:36     16:59    Daglengte: 9:23 Zaterdag 23 Nov
01:00 14.0° 1015.2 hPa 3.4 m/s 145.2 mm 14.0° 1015.7 hPa 3.3 m/s 14.4° 1010.1 hPa 4.7 m/s 145.2 mm
07:00 13.9° 1014.6 hPa 2.4 m/s 146.5 mm 13.9° 1015.0 hPa 2.2 m/s 14.4° 1010.0 hPa 5.1 m/s 146.5 mm
13:00 17.3° 1014.0 hPa 5.6 m/s 162.1 mm 17.7° 1014.2 hPa 5.9 m/s 12.9° 1012.0 hPa 2.2 m/s 162.1 mm
19:00 15.8° 1014.5 hPa 4.7 m/s 181.0 mm 16.1° 1014.7 hPa 4.9 m/s 12.6° 1012.4 hPa 2.8 m/s 181.0 mm
 07:38     16:58    Daglengte: 9:20 Zondag 24 Nov
01:00 15.6° 1014.1 hPa 4.1 m/s 189.0 mm 15.8° 1014.3 hPa 4.1 m/s 13.3° 1011.3 hPa 3.7 m/s 189.0 mm
07:00 13.9° 1011.0 hPa 3.9 m/s 195.9 mm 14.0° 1011.4 hPa 3.8 m/s 13.2° 1007.1 hPa 4.7 m/s 195.9 mm
13:00 18.3° 1009.2 hPa 3.0 m/s 206.3 mm 18.7° 1009.7 hPa 2.8 m/s 14.1° 1003.9 hPa 5.8 m/s 206.3 mm
19:00 12.7° 1000.4 hPa 5.4 m/s 218.1 mm 12.7° 1000.4 hPa 5.4 m/s 218.1 mm
 07:39     16:58    Daglengte: 9:19 Maandag 25 Nov
01:00 11.2° 1011.7 hPa 1.7 m/s 0.8 mm
07:00 10.8° 1011.4 hPa 1.6 m/s 1.2 mm
13:00 14.1° 1011.8 hPa 0.1 m/s 2.1 mm
19:00 12.0° 1012.0 hPa 0.8 m/s 2.6 mm
 07:40     16:57    Daglengte: 9:17 Dinsdag 26 Nov
01:00 11.3° 1012.7 hPa 0.7 m/s 2.1 mm
07:00 10.7° 1012.5 hPa 1.3 m/s 1.3 mm
13:00 13.8° 1012.7 hPa 0.6 m/s 0.5 mm
19:00 11.2° 1012.7 hPa 0.9 m/s 1.0 mm
 07:41     16:56    Daglengte: 9:15 Woensdag 27 Nov
01:00 10.8° 1012.8 hPa 1.3 m/s 1.1 mm
07:00 10.6° 1011.6 hPa 1.1 m/s 2.7 mm
13:00 13.7° 1011.0 hPa 0.4 m/s 2.9 mm
19:00 11.1° 1011.2 hPa 1.7 m/s 2.5 mm
 07:42     16:56    Daglengte: 9:14 Donderdag 28 Nov
01:00 10.4° 1012.0 hPa 2.1 m/s 0.7 mm
07:00 9.6° 1012.0 hPa 2.5 m/s 0.5 mm
13:00 13.3° 1012.3 hPa 1.4 m/s 0.8 mm
19:00 10.1° 1013.0 hPa 1.9 m/s 1.5 mm
 07:44     16:56    Daglengte: 9:12 Vrijdag 29 Nov
01:00 9.5° 1014.1 hPa 2.3 m/s 0.9 mm
07:00 9.1° 1014.2 hPa 2.1 m/s 0.7 mm
13:00 13.0° 1014.8 hPa 0.7 m/s 0.7 mm
19:00 10.1° 1016.1 hPa 1.5 m/s 0.3 mm
 07:45     16:55    Daglengte: 9:10 Zaterdag 30 Nov
01:00 9.2° 1017.9 hPa 2.5 m/s 0.2 mm
FMI Hirlam - 7.5 km EWN WRFDA - 12 km DWD ICON - 7 km GFS - 25 km Basiskaart






























































Updatetijd (Europe/Amsterdam) Resolutie Lengte Stap
FMI Hirlam 00:15, 06:15, 12:15, 18:15 7.5 km 49h 1h
EWN WRFDA 02:30, 08:30, 14:30, 20:30 12 km 73h 1h
DWD ICON 22:45, 04:45, 10:45, 16:45 7 km 75h 1h
GFS 01:30, 07:30, 13:30, 19:30 25 km 237h 3h
30+ mm
25-30 mm
20-25 mm
15-20 mm
10-15 mm
6-10 mm
4-6 mm
2-4 mm
1-2 mm
0.5-1 mm
0.2-0.5 mm
0.1-0.2 mm
30+ mm
25-30 mm
20-25 mm
15-20 mm
10-15 mm
6-10 mm
4-6 mm
2-4 mm
1-2 mm
0.5-1 mm
0.2-0.5 mm
0.1-0.2 mm
Sneeuwval
Natte sneeuw
Hagel
Vorst
30+ mm
25-30 mm
20-25 mm
15-20 mm
10-15 mm
6-10 mm
4-6 mm
2-4 mm
1-2 mm
0.5-1 mm
0.2-0.5 mm
0.1-0.2 mm
Sneeuwval
Natte sneeuw
Hagel
Vorst
Onweer
50 mm
40 mm
30 mm
26 mm
22 mm
18 mm
14 mm
10 mm
9 mm
8 mm
7 mm
6 mm
5 mm
4.5 mm
4 mm
3.5 mm
3 mm
2.5 mm
2 mm
1.5 mm
1 mm
0.8 mm
0.6 mm
0.4 mm
0.2 mm
0.05 mm
35°
30°
25°
20°
15°
10°
-5°
-10°
-15°
-20°
-25°
-30°
-35°
33> m/s
29 m/s
25 m/s
21 m/s
17 m/s
14 m/s
11 m/s
8 m/s
5 m/s
3 m/s
0 m/s
2600 J/kg
2400 J/kg
2200 J/kg
2000 J/kg
1800 J/kg
1600 J/kg
1400 J/kg
1200 J/kg
1000 J/kg
800 J/kg
600 J/kg
400 J/kg
200 J/kg
70 dBZ
65 dBZ
60 dBZ
55 dBZ
50 dBZ
45 dBZ
40 dBZ
35 dBZ
30 dBZ
25 dBZ
20 dBZ
15 dBZ
10 dBZ
5 dBZ
-1 K
-2 K
-3 K
-4 K
-5 K
-6 K
-7 K
-8 K
-9 K
950 m²/s²
900 m²/s²
850 m²/s²
800 m²/s²
750 m²/s²
700 m²/s²
650 m²/s²
600 m²/s²
550 m²/s²
500 m²/s²
450 m²/s²
400 m²/s²
350 m²/s²
300 m²/s²
250 m²/s²
200 m²/s²
150 m²/s²
100 m²/s²
46 m/s
44 m/s
42 m/s
40 m/s
38 m/s
36 m/s
34 m/s
32 m/s
30 m/s
28 m/s
26 m/s
24 m/s
22 m/s
20 m/s
16 m/s
12 m/s
8 m/s
4 m/s
30 m/s
28 m/s
26 m/s
24 m/s
22 m/s
20 m/s
18 m/s
16 m/s
14 m/s
12 m/s
10 m/s
8 m/s
6 m/s
4 m/s
2 m/s
3.0
2.8
2.6
2.4
2.2
2.0
1.8
1.6
1.4
1.2
1.0
0.8
0.6
0.4
0.2
15
14
13
12
11
10
9
8
7
6
5
4
3
2
1
90%
80%
70%
60%
50%
40%
30%
20%
10%
42
40
38
36
34
32
30
28
26
24
22
20
18
16
14
12
90+ cm
80-90 cm
70-80 cm
60-70 cm
50-60 cm
40-50 cm
30-40 cm
20-30 cm
10-20 cm
1-10 cm
Sneeuwval
Natte sneeuw
Regen
>120 mm
115 mm
110 mm
105 mm
100 mm
95 mm
90 mm
85 mm
80 mm
75 mm
70 mm
65 mm
60 mm
55 mm
50 mm
45 mm
45 mm
40 mm
35 mm
30 mm
25 mm
20 mm
15 mm
10 mm
5 mm
0.1 mm
960 hPa
880 hPa
800 hPa
720 hPa
640 hPa
560 hPa
584 gpdm
568 gpdm
552 gpdm
536 gpdm
520 gpdm
504 gpdm
488 gpdm
Extreem zwaar Noodweer Kans op onweer
15% 15% 5% 50% 15%

Dag




Kaart






35°
30°
25°
20°
15°
10°
-5°
-10°
-15°
-20°
-25°
-30°
-35°
33> m/s
29 m/s
25 m/s
21 m/s
17 m/s
14 m/s
11 m/s
8 m/s
5 m/s
3 m/s
0 m/s
Extreem zwaar Noodweer Kans op onweer
15% 15% 5% 50% 15%
>120 mm
115 mm
110 mm
105 mm
100 mm
95 mm
90 mm
85 mm
80 mm
75 mm
70 mm
65 mm
60 mm
55 mm
50 mm
45 mm
45 mm
40 mm
35 mm
30 mm
25 mm
20 mm
15 mm
10 mm
5 mm
0.1 mm
Onweer risico kaarten - De groene en gele kleur geeft de kans op onweer aan binnen 40 km van een punt. Oranje, rood en violet hebben hetzelfde niveau zoals je het ziet op estofex.org waaronder ook de kans op hagel en supercells.

dBZ - dBZ staat voor decibel ten opzichte van Z.

Cape - Convective available potential energy (CAPE), is de totale hoeveelheid energie die een luchtpakketje nodig heeft om zover mogelijk te stijgen in de atmosfeer.

K Index - K-Index wordt berekend door de Vertical Totals (VT) en het verschil tussen de 850 hPa temperatuur en de 700 hPa dauwpuntsdepressie (Tdd 700) bij elkaar op te tellen.

TT Index - Convectie index wordt gebruikt voor het voorspellen van zware buien of onweer.

WRF - The Weather Research and Forecasting (WRF) is een volgende generatie mesoscale numeriek weersvoorspelling systeem ontworpen om zowel de operationele planning als het atmosferisch onderzoek te dienen. WRF is a cooperatie tussen het National Center for Atmospheric Research (NCAR), National Centers for Environmental Prediction (NCEP), Forecast Systems Laboratory (FSL), Air Force Weather Agency (AFWA), Naval Research Laboratory, University of Oklahoma, en de Federal Aviation Administration (FAA). Deze software draait op onze server.

WRFDA - Een meer geavanceerde versie van WRF

Arome - Het 2.5 km Arome model. Verzorgd door het Noors Meteorologisch Instituut.

MET Norway - De proff-default 4km meteorological data is een beste keus selectie van meteorologische modellen gebruikt door met.no die zijn geïnterpoleerd tot een gemeenschappelijke dataset. Verzorgd door het Noorse Meteorologisch Instituut.

SMHI - Het Hirlam model verzorgd door het Zweeds meteorologisch instituut.

FMI - Het Hirlam model verzorgd door het Fins meteorologisch instituut. Dekking alleen Finland.

GFS - Het Global Forecast Systeem (GFS) is een wereldwijd numerieke weersvoorspelling computermodel, gerund door NOAA.

GEM-GDPS - Het GEM-GDPS is a wereldwijd numeriek weersvoorspelling computermodel verzorgd door het Canadees Meteorologisch Centrum.

Credits/Info: Dank aan Stefan Gofferje van sääkeskus.fi voor enkele formules van GrADS. Info: Wikipedia.

Betrouwbaarheid van de verwachting

NB! 2015-03-29: Rebuilding the accuracy-test!

EWNACC
Day 1 Good forecasts

Dag 1 Tmax

Dag 2 Tmax

Geladen verwachtingen TOP 50

Totaal geladen verwachtingen:
Plaats Latitude Longitude Verwachtingen Plaats Latitude Longitude Verwachtingen